Location: ?????
(55.6500°N, 37.2500°E)
Time: 07:13:28
(UTC+00:00)

Cosmos 2237 Rocket - Pass Details

Date: 19 May 2025
Orbit: 834 x 849 km, 71.0° (Epoch: 23 June)

Event Time Altitude Azimuth Distance (km) Brightness Sun altitude
Rises 21:57:23 0° 324° (NW) 3,399 6.1 -14.1°
Reaches altitude 10° 21:59:57 10° 331° (NNW) 2,464 5.4 -14.1°
Maximum altitude 22:05:21 44° 43° (NE) 1,154 3.4 -14.0°
Drops below altitude 10° 22:10:44 10° 115° (ESE) 2,462 4.5 -13.8°
Sets 22:13:18 0° 122° (ESE) 3,396 5.1 -13.8°
